User: anonymous   Login
Location: Rehoboth Beach
(38.7438°N, 75.1341°W)
Time: 17:26:28
(UTC-04:00)
Language:

Cosmos 1452 Rocket - Orbit

View from above orbital plane
View from above orbital plane
View from above satellite
View from above satellite

Ground track
Ground track

The orbit data is extracted from the following two-line orbital elements,

1 13992U 83031B   17115.56333402 -.00000006 +00000-0 +67602-5 0  9993
2 13992 074.0516 103.6603 0003811 102.2145 033.6664 14.36082072781250
Epoch (UTC): 25 April 2017 13:31:12
Eccentricity: 0.0003811
inclination: 74.0516°
perigee height: 769 km
apogee height: 774 km
right ascension of ascending node: 103.6603°
argument of perigee: 102.2145°
revolutions per day: 14.36082072
mean anomaly at epoch: 33.6664°
orbit number at epoch: 78125

The dashed part of the orbit path shows where the satellite is in the earth's shadow,  

DLR